Location: Radomski Observatory
(40.2854°N, 79.5145°W)
Time: 19:18:00
(UTC-05:00)

Amateur Radio Satellites - All Passes

Search period start: 10 December 2017 18:48
Search period end: 11 December 2017 18:48
Location: Radomski Observatory, 40.2854°N, 79.5145°W

Satellite Date Start Highest point End Downlink Frequencies (MHz)
Time Altitude Azimuth
KKS-1 10 Dec 18:49:21 18:52:33 20° 294° (WNW) 18:55:44 437.445
nSIGHT-1 10 Dec 18:51:30 18:54:26 32° 28° (NNE) 18:57:22 .
PCSat 10 Dec 19:05:54 19:10:41 33° 110° (ESE) 19:15:30 145.827
ZACube-1 10 Dec 19:09:43 19:13:32 36° 72° (ENE) 19:17:21 437.345
ISS 10 Dec 19:16:20 19:19:28 40° 30° (NNE) 19:22:35 437.550
STRAND 1 10 Dec 19:19:48 19:24:35 39° 98° (E) 19:29:19 437.568
XW-2A 10 Dec 19:32:13 19:35:30 61° 259° (W) 19:38:50 145.665 - 145.685
Oscar 11 10 Dec 19:37:12 19:41:17 44° 73° (ENE) 19:45:24 .
AO-73 10 Dec 19:46:14 19:50:22 87° 70° (ENE) 19:54:31 145.935
STARS 10 Dec 19:46:47 19:48:39 13° 298° (WNW) 19:50:31 437.465
SEEDS 10 Dec 19:47:40 19:50:55 22° 266° (W) 19:54:12 437.485
O/OREOS (USA 219) 10 Dec 19:53:45 19:58:01 43° 254° (WSW) 20:02:14 437.305
RS-15 10 Dec 19:54:32 20:03:15 21° 352° (N) 20:11:46 29.354- 29.394
CUBEBUG 2 10 Dec 20:02:33 20:05:08 16° 267° (W) 20:07:43 437.445
Max Valier Satellite 10 Dec 20:06:52 20:07:19 10° 64° (ENE) 20:07:44 145.860
UWE-3 10 Dec 20:11:10 20:14:25 22° 265° (W) 20:17:38 435.000/436.395/437.385
AAUSAT CUBESAT 2 10 Dec 20:20:50 20:24:01 21° 266° (W) 20:27:14 437.432
HO-68 10 Dec 20:22:42 20:26:32 15° 271° (W) 20:30:23 435.675
nSIGHT-1 10 Dec 20:27:46 20:30:36 29° 225° (SW) 20:33:25 .
DELFI C3 10 Dec 20:30:05 20:33:39 32° 71° (ENE) 20:37:14 145.870
FO-29 10 Dec 20:33:33 20:40:36 60° 99° (E) 20:46:47 435.910
EO-88 10 Dec 20:43:21 20:46:02 20° 69° (ENE) 20:48:44 145.990 - 145.960
ZACube-1 10 Dec 20:47:15 20:49:56 17° 267° (W) 20:52:38 437.345
PCSat 10 Dec 20:49:05 20:54:01 35° 307° (NW) 20:58:59 145.827
ISS 10 Dec 20:53:10 20:55:48 22° 227° (SW) 20:58:24 437.550
STRAND 1 10 Dec 20:59:27 21:03:30 25° 295° (WNW) 21:07:34 437.568
Oscar 11 10 Dec 21:15:05 21:17:38 15° 268° (W) 21:20:12 .
BEESAT 3 10 Dec 21:17:19 21:21:16 69° 121° (ESE) 21:25:16 437.485
TIGRISAT 10 Dec 21:27:32 21:31:07 25° 96° (E) 21:34:44 435.000
UNISAT 6 10 Dec 21:29:23 21:33:10 29° 96° (E) 21:36:59 437.425
Max Valier Satellite 10 Dec 21:37:05 21:40:37 52° 260° (W) 21:44:13 145.860
BEESAT 2 10 Dec 21:46:25 21:50:07 37° 115° (ESE) 21:53:52 435.950
PRISM 10 Dec 21:57:31 22:00:03 16° 93° (E) 22:02:35 437.425
DELFI C3 10 Dec 22:05:39 22:08:26 18° 267° (W) 22:11:14 145.870
RS-15 10 Dec 22:11:23 22:21:24 29° 28° (NNE) 22:30:57 29.354- 29.394
EO-88 10 Dec 22:16:31 22:19:31 24° 264° (W) 22:22:32 145.990 - 145.960
FO-29 10 Dec 22:19:23 22:24:59 25° 300° (WNW) 22:30:07 435.910
AO-85 10 Dec 22:24:52 22:28:01 24° 112° (ESE) 22:31:17 145.980
SPROUT 10 Dec 22:37:58 22:39:22 11° 63° (ENE) 22:40:45 437.525
ESTCUBE 1 10 Dec 22:38:18 22:42:39 51° 73° (ENE) 22:47:02 437.505/2401.250
BEESAT 3 10 Dec 22:57:10 22:59:15 14° 318° (NW) 23:01:19 437.485
VELOX 1 10 Dec 22:58:01 22:59:59 13° 62° (ENE) 23:01:57 145.980
LO-87 10 Dec 23:00:51 23:04:21 58° 260° (W) 23:07:52 145.935 - 145.965
TIGRISAT 10 Dec 23:04:06 23:07:45 27° 291° (WNW) 23:11:25 435.000
EO-79 10 Dec 23:05:17 23:05:56 10° 90° (E) 23:06:36 145.935-145.965
UNISAT 6 10 Dec 23:06:17 23:09:44 24° 292° (WNW) 23:13:15 437.425
BEESAT 2 10 Dec 23:24:49 23:27:57 21° 313° (NW) 23:31:06 435.950
POLYITAN 1 10 Dec 23:24:57 23:27:54 18° 94° (E) 23:30:51 437.675
PRISM 10 Dec 23:31:38 23:35:28 39° 289° (WNW) 23:39:16 437.425
AIST 2D 10 Dec 23:48:33 23:52:03 58° 285° (WNW) 23:55:32 435.315
FALCONSAT 3 10 Dec 23:48:39 23:50:56 16° 157° (SSE) 23:53:12 435.103
QB50P2 10 Dec 23:49:28 23:53:25 39° 98° (E) 23:57:23 145.880/145.840
DUCHIFAT 1 11 Dec 00:01:57 00:05:50 36° 98° (E) 00:09:43 145.980
SO-50 11 Dec 00:02:37 00:05:28 16° 41° (NE) 00:08:20 436.795
AO-85 11 Dec 00:04:50 00:08:16 28° 311° (NW) 00:11:52 145.980
DX 1 11 Dec 00:07:10 00:09:43 15° 64° (ENE) 00:12:16 434.975-435.025
SPROUT 11 Dec 00:10:27 00:14:40 65° 258° (WSW) 00:18:55 437.525
ESTCUBE 1 11 Dec 00:17:12 00:19:44 15° 269° (W) 00:22:16 437.505/2401.250
RS-15 11 Dec 00:24:16 00:36:10 78° 56° (NE) 00:47:22 29.354- 29.394
NANOSAT C BR1 11 Dec 00:25:34 00:29:47 82° 105° (ESE) 00:33:58 145.865
VELOX 1 11 Dec 00:31:27 00:35:51 64° 258° (WSW) 00:40:19 145.980
EO-79 11 Dec 00:37:54 00:42:04 62° 285° (WNW) 00:46:13 145.935-145.965
POLYITAN 1 11 Dec 00:59:55 01:03:46 35° 289° (WNW) 01:07:36 437.675
BUGSAT 1 11 Dec 01:00:02 01:03:47 37° 98° (E) 01:07:33 437.445
Oscar 19 11 Dec 01:10:08 01:14:39 29° 96° (E) 01:19:07 437.125/150
Gurwin Techsat 1B 11 Dec 01:17:13 01:21:33 25° 94° (E) 01:25:51 435.225
QB50P2 11 Dec 01:26:06 01:28:53 18° 294° (WNW) 01:31:41 145.880/145.840
FALCONSAT 3 11 Dec 01:26:08 01:29:29 34° 171° (S) 01:32:50 435.103
BEESAT 11 Dec 01:34:00 01:36:09 13° 61° (ENE) 01:38:18 436.000
UKube-1 11 Dec 01:34:42 01:39:02 83° 73° (ENE) 01:43:22 .
50 SAT 11 Dec 01:36:49 01:39:49 38° 261° (W) 01:42:50 437.505
DUCHIFAT 1 11 Dec 01:38:20 01:41:13 18° 294° (WNW) 01:44:06 145.980
YUBILEINY 11 Dec 01:39:16 01:41:18 11° 73° (ENE) 01:43:20 435.215
DX 1 11 Dec 01:41:12 01:45:27 50° 260° (W) 01:49:44 434.975-435.025
SO-50 11 Dec 01:41:48 01:46:29 79° 239° (WSW) 01:51:12 436.795
MOZHAYETS 4 11 Dec 01:49:34 01:53:11 24° 67° (ENE) 01:56:50
ITUPSAT 1 11 Dec 01:57:38 02:01:14 22° 65° (ENE) 02:04:51 437.325
AO-91 11 Dec 02:01:35 02:05:11 79° 284° (WNW) 02:08:33 145.960
BUGSAT 1 11 Dec 02:36:15 02:38:50 17° 294° (WNW) 02:41:26 437.445
M-CUBED/EXP-1 PRIME 11 Dec 02:37:39 02:38:44 11° 93° (E) 02:39:49 437.505
RS-15 11 Dec 02:38:09 02:47:16 28° 258° (WSW) 02:56:05 29.354- 29.394
Oscar 19 11 Dec 02:49:18 02:53:56 34° 292° (WNW) 02:58:33 437.125/150
Gurwin Techsat 1B 11 Dec 02:56:39 03:01:35 40° 291° (WNW) 03:06:31 435.225
AO-7 11 Dec 02:58:05 03:05:26 33° 97° (E) 03:12:43 .
CUBESAT XI-V 11 Dec 03:00:51 03:04:57 32° 69° (ENE) 03:09:03 437.345
FALCONSAT 3 11 Dec 03:04:50 03:08:13 35° 187° (S) 03:11:36 435.103
BEESAT 11 Dec 03:08:34 03:13:18 71° 258° (WSW) 03:18:04 436.000
MOZHAYETS 4 11 Dec 03:26:06 03:30:10 32° 263° (W) 03:34:15
YUBILEINY 11 Dec 03:27:34 03:36:15 67° 92° (E) 03:44:59 435.215
ITUPSAT 1 11 Dec 03:34:21 03:38:47 39° 261° (W) 03:43:15 437.325
ITAMSAT 1 11 Dec 03:51:40 03:56:44 54° 100° (E) 04:01:47 435.822/435.867
PCSat 11 Dec 03:53:58 03:58:31 26° 49° (NE) 04:03:03 145.827
M-CUBED/EXP-1 PRIME 11 Dec 04:09:01 04:13:37 73° 290° (WNW) 04:17:57 437.505
KKS-1 11 Dec 04:09:29 04:13:29 34° 70° (ENE) 04:17:31 437.445
CUBESAT XI-V 11 Dec 04:38:29 04:42:17 25° 265° (W) 04:46:08 437.345
FALCONSAT 3 11 Dec 04:44:16 04:46:48 18° 202° (SSW) 04:49:21 435.103
AO-7 11 Dec 04:50:21 04:58:27 56° 295° (WNW) 05:06:32 .
DOVE 4 11 Dec 05:03:58 05:08:30 56° 99° (E) 05:12:46 437.250
STARS 11 Dec 05:04:11 05:08:27 51° 73° (ENE) 05:12:44 437.465
XW-2F 11 Dec 05:25:09 05:27:02 13° 92° (E) 05:28:54 145.980 - 146.000
YUBILEINY 11 Dec 05:26:36 05:33:44 27° 293° (WNW) 05:40:56 435.215
ITAMSAT 1 11 Dec 05:32:11 05:35:46 19° 297° (WNW) 05:39:20 435.822/435.867
BEESAT 3 11 Dec 05:34:29 05:38:04 32° 52° (NE) 05:41:35 437.485
XW-2C 11 Dec 05:35:35 05:38:25 19° 94° (E) 05:41:14 145.795 - 145.815
PCSat 11 Dec 05:36:57 05:42:08 47° 247° (WSW) 05:47:17 145.827
KKS-1 11 Dec 05:46:37 05:50:05 22° 265° (W) 05:53:33 437.445
HO-68 11 Dec 06:00:49 06:05:19 17° 90° (E) 06:09:47 435.675
BEESAT 2 11 Dec 06:04:32 06:07:40 21° 47° (NE) 06:10:45 435.950
LilacSat-2 11 Dec 06:05:56 06:09:44 50° 100° (E) 06:13:30 437.200
CUTE 1.7 + AOD 2 11 Dec 06:11:33 06:13:36 13° 91° (E) 06:15:39 437.475
XW-2D 11 Dec 06:25:57 06:29:49 88° 93° (E) 06:33:40 145.860 - 145.880
CUTE-I 11 Dec 06:27:06 06:32:22 58° 101° (E) 06:37:35 437.470
STRAND 1 11 Dec 06:34:58 06:39:57 54° 72° (ENE) 06:44:56 437.568
XW-2B 11 Dec 06:41:44 06:45:33 61° 285° (WNW) 06:49:20 145.730 - 145.750
STARS 11 Dec 06:42:45 06:45:04 14° 268° (W) 06:47:21 437.465
DOVE 4 11 Dec 06:43:13 06:45:37 14° 298° (WNW) 06:47:58 437.250
FO-29 11 Dec 06:43:49 06:50:15 30° 62° (ENE) 06:56:49 435.910
KAITUO 1B 11 Dec 06:45:02 06:48:50 78° 285° (WNW) 06:52:37 145.475/437.950
AO-7 11 Dec 06:46:14 06:49:23 13° 316° (NW) 06:52:33 .
NUDT-PHONESAT 11 Dec 06:48:44 06:52:29 74° 284° (WNW) 06:56:13 437.300
AO-85 11 Dec 06:54:59 06:58:58 26° 48° (NE) 07:03:10 145.980
XW-2F 11 Dec 06:57:41 07:01:18 40° 287° (WNW) 07:04:54 145.980 - 146.000
XW-2C 11 Dec 07:09:16 07:12:34 28° 289° (WNW) 07:15:52 145.795 - 145.815
BEESAT 3 11 Dec 07:12:26 07:15:22 20° 248° (WSW) 07:18:15 437.485
SEEDS 11 Dec 07:30:32 07:34:47 63° 101° (E) 07:38:58 437.485
AO-73 11 Dec 07:35:10 07:38:04 17° 93° (E) 07:40:59 145.935
BEESAT 2 11 Dec 07:41:46 07:45:29 36° 245° (WSW) 07:49:07 435.950
LilacSat-2 11 Dec 07:42:00 07:43:32 12° 295° (WNW) 07:45:04 437.200
CUTE 1.7 + AOD 2 11 Dec 07:45:32 07:49:43 51° 286° (WNW) 07:53:52 437.475
HO-68 11 Dec 07:46:35 07:53:46 81° 288° (WNW) 08:00:55 435.675
CUBEBUG 2 11 Dec 07:51:16 07:55:29 77° 285° (WNW) 07:59:48 437.445
UWE-3 11 Dec 07:59:27 08:03:43 72° 101° (E) 08:08:04 435.000/436.395/437.385
AAUSAT CUBESAT 2 11 Dec 08:01:59 08:06:08 60° 101° (E) 08:10:13 437.432
NO-84 11 Dec 08:03:01 08:06:04 84° 136° (SE) 08:09:22 435.350 FM
CUTE-I 11 Dec 08:08:18 08:11:55 19° 298° (WNW) 08:15:31 437.470
STRAND 1 11 Dec 08:16:04 08:19:25 17° 268° (W) 08:22:48 437.568
TIGRISAT 11 Dec 08:26:05 08:29:19 21° 68° (ENE) 08:32:32 435.000
XW-2A 11 Dec 08:26:26 08:29:48 54° 284° (WNW) 08:33:08 145.665 - 145.685
O/OREOS (USA 219) 11 Dec 08:26:55 08:30:29 23° 102° (ESE) 08:34:03 437.305
FO-29 11 Dec 08:27:12 08:34:41 61° 260° (W) 08:42:30 435.910
UNISAT 6 11 Dec 08:27:57 08:31:26 24° 69° (ENE) 08:34:53 437.425
ZACube-1 11 Dec 08:33:38 08:37:58 90° 147° (SSE) 08:42:23 437.345
AO-85 11 Dec 08:34:54 08:39:32 45° 244° (WSW) 08:44:26 145.980
PRISM 11 Dec 08:47:20 08:48:49 12° 63° (ENE) 08:50:20 437.425
Oscar 11 11 Dec 09:00:27 09:04:50 81° 282° (WNW) 09:09:10 .
Max Valier Satellite 11 Dec 09:08:21 09:10:23 14° 93° (E) 09:12:24 145.860
SEEDS 11 Dec 09:08:22 09:09:53 12° 297° (WNW) 09:11:24 437.485
AO-73 11 Dec 09:10:22 09:14:25 40° 288° (WNW) 09:18:31 145.935
HO-68 11 Dec 09:36:23 09:40:24 16° 306° (NW) 09:44:25 435.675
UWE-3 11 Dec 09:38:44 09:39:36 11° 297° (WNW) 09:40:28 435.000/436.395/437.385
AAUSAT CUBESAT 2 11 Dec 09:39:30 09:41:01 12° 297° (WNW) 09:42:32 437.432
DELFI C3 11 Dec 09:41:20 09:45:14 56° 100° (E) 09:49:05 145.870
NO-84 11 Dec 09:41:47 09:43:47 15° 336° (NNW) 09:45:54 435.350 FM
EO-88 11 Dec 09:44:54 09:48:02 26° 96° (E) 09:51:10 145.990 - 145.960
TIGRISAT 11 Dec 10:01:55 10:05:48 32° 263° (W) 10:09:40 435.000
UNISAT 6 11 Dec 10:04:17 10:08:01 28° 264° (W) 10:11:45 437.425
O/OREOS (USA 219) 11 Dec 10:05:29 10:09:40 34° 298° (WNW) 10:13:53 437.305
POLYITAN 1 11 Dec 10:17:52 10:19:59 14° 64° (ENE) 10:22:06 437.675
PRISM 11 Dec 10:19:27 10:23:33 61° 259° (W) 10:27:42 437.425
AIST 2D 11 Dec 10:21:44 10:25:00 39° 74° (ENE) 10:28:19 435.315
LO-87 11 Dec 10:30:18 10:30:55 10° 91° (E) 10:31:32 145.935 - 145.965
ESTCUBE 1 11 Dec 10:33:35 10:34:53 11° 90° (E) 10:36:10 437.505/2401.250
Max Valier Satellite 11 Dec 10:40:53 10:44:19 35° 288° (WNW) 10:47:44 145.860
QB50P2 11 Dec 10:41:32 10:45:06 27° 69° (ENE) 10:48:41 145.880/145.840
DUCHIFAT 1 11 Dec 10:53:16 10:56:41 25° 69° (ENE) 11:00:06 145.980
NANOSAT C BR1 11 Dec 11:16:39 11:20:43 54° 74° (ENE) 11:24:48 145.865
DELFI C3 11 Dec 11:18:12 11:19:27 11° 296° (WNW) 11:20:42 145.870
EO-88 11 Dec 11:18:52 11:21:29 19° 292° (WNW) 11:24:06 145.990 - 145.960
EO-79 11 Dec 11:29:09 11:33:21 87° 83° (E) 11:37:34 145.935-145.965
BUGSAT 1 11 Dec 11:49:20 11:52:39 25° 69° (ENE) 11:55:56 437.445
POLYITAN 1 11 Dec 11:51:14 11:55:18 51° 260° (W) 11:59:24 437.675
SPROUT 11 Dec 11:57:01 12:00:15 21° 94° (E) 12:03:27 437.525
ISS 11 Dec 11:57:01 11:58:59 15° 130° (SE) 12:00:57 437.550
AIST 2D 11 Dec 11:57:26 11:58:22 11° 269° (W) 11:59:19 435.315
LO-87 11 Dec 12:01:09 12:04:31 42° 286° (WNW) 12:07:52 145.935 - 145.965
ESTCUBE 1 11 Dec 12:07:35 12:12:07 68° 285° (WNW) 12:16:36 437.505/2401.250
QB50P2 11 Dec 12:17:27 12:20:50 23° 265° (W) 12:24:14 145.880/145.840
VELOX 1 11 Dec 12:22:20 12:25:56 24° 95° (E) 12:29:29 145.980
Oscar 19 11 Dec 12:26:21 12:31:07 40° 69° (ENE) 12:35:54 437.125/150
DUCHIFAT 1 11 Dec 12:28:47 12:32:15 25° 264° (W) 12:35:44 145.980
Gurwin Techsat 1B 11 Dec 12:37:35 12:42:28 38° 69° (ENE) 12:47:21 435.225
NANOSAT C BR1 11 Dec 12:55:10 12:56:43 12° 269° (W) 12:58:18 145.865
AO-91 11 Dec 12:56:22 13:01:28 77° 76° (ENE) 13:06:09 145.960
NO-84 11 Dec 12:59:24 13:01:09 13° 20° (NNE) 13:02:57 435.350 FM
nSIGHT-1 11 Dec 13:03:47 13:07:00 82° 323° (NW) 13:10:13 .
M-CUBED/EXP-1 PRIME 11 Dec 13:21:33 13:23:43 14° 56° (ENE) 13:25:56 437.505
UKube-1 11 Dec 13:23:40 13:25:53 14° 92° (E) 13:28:06 .
BUGSAT 1 11 Dec 13:24:33 13:27:54 24° 264° (W) 13:31:15 437.445
DX 1 11 Dec 13:30:02 13:33:45 27° 96° (E) 13:37:26 434.975-435.025
ISS 11 Dec 13:31:53 13:35:08 58° 327° (NNW) 13:38:23 437.550
SPROUT 11 Dec 13:32:23 13:36:09 31° 290° (WNW) 13:39:54 437.525
ITAMSAT 1 11 Dec 13:34:46 13:35:34 10° 57° (ENE) 13:36:24 435.822/435.867
YUBILEINY 11 Dec 13:38:53 13:46:35 32° 70° (ENE) 13:54:10 435.215
AO-7 11 Dec 13:56:24 14:04:05 44° 62° (ENE) 14:11:50 .
VELOX 1 11 Dec 13:58:30 14:02:21 30° 291° (WNW) 14:06:09 145.980
Oscar 19 11 Dec 14:06:29 14:10:33 23° 266° (W) 14:14:37 437.125/150
Gurwin Techsat 1B 11 Dec 14:18:03 14:22:27 26° 265° (W) 14:26:54 435.225
50 SAT 11 Dec 14:25:08 14:28:10 44° 286° (WNW) 14:31:11 437.505
NO-84 11 Dec 14:35:25 14:39:11 46° 38° (NE) 14:43:09 435.350 FM
AO-91 11 Dec 14:36:33 14:38:12 11° 269° (W) 14:39:50 145.960
nSIGHT-1 11 Dec 14:41:23 14:43:37 17° 342° (NNW) 14:45:51 .
RS-15 11 Dec 14:45:14 14:56:58 54° 111° (ESE) 15:08:39 29.354- 29.394
M-CUBED/EXP-1 PRIME 11 Dec 14:53:17 14:57:27 66° 254° (WSW) 15:01:55 437.505
UKube-1 11 Dec 14:58:00 15:02:10 49° 288° (WNW) 15:06:18 .
DX 1 11 Dec 15:06:13 15:09:49 26° 292° (WNW) 15:13:24 434.975-435.025
ITAMSAT 1 11 Dec 15:08:56 15:14:09 79° 76° (ENE) 15:19:23 435.822/435.867
BEESAT 11 Dec 15:09:23 15:13:32 29° 96° (E) 15:17:40 436.000
ISS 11 Dec 15:10:06 15:12:10 15° 345° (NNW) 15:14:13 437.550
MOZHAYETS 4 11 Dec 15:20:45 15:25:19 59° 100° (E) 15:29:52
ITUPSAT 1 11 Dec 15:34:46 15:39:27 53° 100° (E) 15:44:06 437.325
YUBILEINY 11 Dec 15:35:13 15:43:46 56° 270° (W) 15:52:13 435.215
AO-7 11 Dec 15:49:06 15:56:49 42° 260° (W) 16:04:37 .
SO-50 11 Dec 15:55:42 15:59:46 36° 115° (ESE) 16:03:53 436.795
DOVE 4 11 Dec 16:07:25 16:12:35 56° 73° (ENE) 16:17:41 437.250
CUTE-I 11 Dec 16:12:21 16:14:24 12° 58° (ENE) 16:16:28 437.470
NO-84 11 Dec 16:13:06 16:16:19 23° 233° (SW) 16:19:38 435.350 FM
nSIGHT-1 11 Dec 16:19:48 16:20:51 11° 2° (N) 16:21:54 .
HO-68 11 Dec 16:31:12 16:34:35 14° 52° (NE) 16:37:59 435.675
CUBESAT XI-V 11 Dec 16:34:14 16:38:59 83° 101° (E) 16:43:41 437.345
BEESAT 11 Dec 16:47:08 16:51:12 28° 292° (WNW) 16:55:15 436.000
LilacSat-2 11 Dec 16:47:33 16:50:34 23° 69° (ENE) 16:53:37 437.200
ISS 11 Dec 16:48:22 16:49:43 12° 5° (N) 16:51:04 437.550
ITAMSAT 1 11 Dec 16:52:20 16:54:10 12° 270° (W) 16:56:01 435.822/435.867
RS-15 11 Dec 16:57:44 17:09:38 51° 314° (NW) 17:21:26 29.354- 29.394
MOZHAYETS 4 11 Dec 16:59:28 17:01:57 15° 297° (WNW) 17:04:28
XW-2D 11 Dec 17:06:22 17:09:51 36° 72° (ENE) 17:13:21 145.860 - 145.880
ITUPSAT 1 11 Dec 17:13:47 17:16:50 17° 297° (WNW) 17:19:53 437.325
XW-2B 11 Dec 17:21:52 17:25:32 54° 75° (ENE) 17:29:16 145.730 - 145.750
KAITUO 1B 11 Dec 17:23:59 17:27:28 40° 73° (ENE) 17:31:01 145.475/437.950
NUDT-PHONESAT 11 Dec 17:26:46 17:30:13 41° 73° (ENE) 17:33:43 437.300
SO-50 11 Dec 17:36:31 17:40:17 26° 313° (NW) 17:44:05 436.795
KKS-1 11 Dec 17:36:37 17:41:04 72° 103° (ESE) 17:45:28 437.445
XW-2F 11 Dec 17:37:06 17:40:50 82° 78° (ENE) 17:44:39 145.980 - 146.000
DOVE 4 11 Dec 17:46:59 17:50:31 18° 269° (W) 17:54:01 437.250
CUTE-I 11 Dec 17:48:15 17:53:38 89° 69° (ENE) 17:59:03 437.470
XW-2C 11 Dec 17:48:59 17:52:42 63° 259° (WSW) 17:56:29 145.795 - 145.815
nSIGHT-1 11 Dec 17:55:30 17:58:01 20° 22° (NNE) 18:00:31 .
HO-68 11 Dec 18:13:55 18:21:04 72° 71° (ENE) 18:28:14 435.675
CUBESAT XI-V 11 Dec 18:14:23 18:15:37 11° 299° (WNW) 18:16:52 437.345
SEEDS 11 Dec 18:21:19 18:25:14 39° 72° (ENE) 18:29:11 437.485
LilacSat-2 11 Dec 18:21:41 18:24:44 23° 265° (W) 18:27:49 437.200
ISS 11 Dec 18:24:15 18:27:04 25° 25° (NNE) 18:29:53 437.550
STARS 11 Dec 18:29:52 18:34:13 76° 285° (WNW) 18:38:33 437.465
AO-73 11 Dec 18:31:32 18:33:12 12° 64° (ENE) 18:34:53 145.935
PCSat 11 Dec 18:35:42 18:39:56 24° 107° (ESE) 18:44:11 145.827
O/OREOS (USA 219) 11 Dec 18:36:29 18:40:44 39° 63° (ENE) 18:44:55 437.305
CUTE 1.7 + AOD 2 11 Dec 18:36:56 18:41:10 81° 257° (WSW) 18:45:28 437.475
XW-2D 11 Dec 18:42:04 18:44:09 14° 268° (W) 18:46:14 145.860 - 145.880
